Total_Precipitation_Accumulation
0.20 0.20 0.21 0.19 0.18 0.19 0.22 0.30 0.38 0.27 0.11 0.10 0.17 0.18 0.17 0.19 0.25 0.27 0.27 0.29 0.33 0.34 0.34 0.39 0.47 0.54 0.64 0.86 1.33 1.97 2.45 2.75 2.59 2.14 1.65 1.26 1.06 0.95
0.28 0.28 0.27 0.26 0.26 0.24 0.23 0.24 0.30 0.37 0.24 0.10 0.15 0.21 0.23 0.24 0.27 0.27 0.28 0.31 0.31 0.34 0.35 0.35 0.40 0.46 0.55 0.67 0.83 1.24 1.81 2.26 2.55 2.56 2.30 1.89 1.47 1.22
0.34 0.36 0.36 0.36 0.35 0.33 0.31 0.29 0.29 0.35 0.33 0.13 0.09 0.15 0.25 0.29 0.30 0.27 0.26 0.25 0.24 0.29 0.36 0.37 0.39 0.41 0.46 0.56 0.67 0.85 1.27 1.71 2.08 2.45 2.61 2.42 2.00 1.53
0.38 0.42 0.42 0.42 0.43 0.42 0.42 0.38 0.34 0.35 0.38 0.24 0.12 0.12 0.20 0.28 0.33 0.33 0.27 0.24 0.22 0.25 0.32 0.38 0.40 0.41 0.43 0.46 0.53 0.66 0.91 1.35 1.67 1.92 2.25 2.35 2.16 1.87
0.36 0.40 0.45 0.49 0.52 0.51 0.50 0.46 0.41 0.34 0.32 0.29 0.18 0.14 0.18 0.25 0.31 0.34 0.33 0.30 0.26 0.27 0.29 0.36 0.43 0.43 0.43 0.44 0.46 0.51 0.60 0.82 1.20 1.62 1.99 2.26 2.17 1.93
0.35 0.38 0.43 0.50 0.57 0.62 0.64 0.55 0.45 0.41 0.36 0.31 0.23 0.20 0.20 0.24 0.33 0.37 0.38 0.38 0.38 0.33 0.31 0.32 0.39 0.43 0.41 0.38 0.37 0.41 0.49 0.68 0.96 1.34 1.65 1.98 2.12 1.94
0.37 0.38 0.42 0.51 0.64 0.74 0.75 0.67 0.55 0.47 0.40 0.35 0.30 0.25 0.24 0.29 0.36 0.40 0.42 0.41 0.44 0.45 0.40 0.33 0.32 0.32 0.35 0.39 0.40 0.40 0.47 0.55 0.68 0.92 1.26 1.56 1.85 1.99
0.40 0.36 0.35 0.39 0.44 0.51 0.61 0.59 0.57 0.52 0.48 0.43 0.42 0.40 0.36 0.35 0.40 0.47 0.53 0.50 0.48 0.44 0.38 0.36 0.36 0.38 0.35 0.36 0.42 0.42 0.41 0.45 0.53 0.67 0.86 1.11 1.37 1.68
0.32 0.27 0.25 0.27 0.27 0.25 0.29 0.27 0.30 0.39 0.50 0.54 0.58 0.58 0.52 0.46 0.48 0.54 0.60 0.60 0.53 0.51 0.46 0.48 0.45 0.43 0.41 0.45 0.50 0.44 0.43 0.44 0.45 0.49 0.63 0.81 1.00 1.25
0.24 0.25 0.25 0.24 0.23 0.19 0.17 0.18 0.21 0.27 0.41 0.51 0.62 0.66 0.64 0.60 0.58 0.64 0.72 0.75 0.69 0.64 0.59 0.62 0.62 0.53 0.49 0.48 0.53 0.48 0.43 0.41 0.42 0.45 0.50 0.59 0.74 0.95
0.22 0.31 0.32 0.27 0.24 0.14 0.11 0.16 0.19 0.22 0.28 0.40 0.50 0.52 0.54 0.62 0.67 0.67 0.72 0.82 0.93 0.94 0.85 0.81 0.80 0.68 0.61 0.56 0.55 0.57 0.53 0.47 0.43 0.44 0.47 0.51 0.58 0.72
0.18 0.29 0.46 0.37 0.24 0.10 0.08 0.11 0.14 0.18 0.18 0.19 0.22 0.26 0.30 0.37 0.51 0.69 0.80 0.82 0.94 1.07 1.04 0.94 0.92 0.79 0.76 0.69 0.55 0.48 0.51 0.58 0.56 0.52 0.53 0.55 0.58 0.59
0.17 0.29 0.45 0.35 0.19 0.10 0.07 0.08 0.13 0.11 0.11 0.12 0.14 0.17 0.21 0.30 0.42 0.58 0.73 0.80 0.85 0.95 0.98 0.94 0.96 0.84 0.71 0.70 0.60 0.51 0.43 0.42 0.46 0.54 0.60 0.66 0.68 0.66
0.18 0.23 0.30 0.22 0.14 0.07 0.04 0.05 0.04 0.03 0.04 0.06 0.07 0.10 0.15 0.24 0.36 0.48 0.60 0.69 0.79 0.86 0.85 0.80 0.83 0.79 0.64 0.53 0.53 0.57 0.51 0.46 0.41 0.43 0.49 0.69 0.79 0.78
0.23 0.35 0.24 0.13 0.07 0.04 0.02 0.01 0.01 0.01 0.02 0.03 0.04 0.06 0.10 0.16 0.23 0.32 0.42 0.53 0.60 0.69 0.73 0.71 0.70 0.74 0.67 0.53 0.42 0.44 0.52 0.56 0.50 0.44 0.45 0.52 0.62 0.69
0.11 0.19 0.15 0.06 0.01 0.01 0.00 0.00 0.01 0.01 0.02 0.03 0.04 0.04 0.05 0.08 0.13 0.22 0.32 0.42 0.50 0.62 0.69 0.74 0.76 0.79 0.78 0.66 0.48 0.41 0.41 0.54 0.57 0.48 0.43 0.46 0.52 0.55
0.12 0.08 0.05 0.03 0.02 0.01 0.00 0.00 0.00 0.01 0.01 0.02 0.03 0.04 0.05 0.07 0.10 0.16 0.27 0.35 0.46 0.59 0.70 0.81 0.89 0.93 0.95 0.90 0.78 0.61 0.48 0.47 0.53 0.51 0.45 0.47 0.55 0.57
0.10 0.06 0.05 0.03 0.02 0.02 0.01 0.01 0.00 0.01 0.01 0.02 0.03 0.04 0.06 0.08 0.10 0.13 0.21 0.31 0.40 0.51 0.60 0.73 0.86 0.97 1.11 1.23 1.11 0.82 0.60 0.53 0.58 0.60 0.51 0.47 0.54 0.54
0.04 0.03 0.03 0.02 0.02 0.02 0.01 0.01 0.01 0.01 0.01 0.02 0.04 0.05 0.06 0.09 0.10 0.13 0.18 0.27 0.37 0.46 0.54 0.60 0.72 0.89 1.03 1.18 1.31 1.02 0.69 0.54 0.57 0.69 0.68 0.53 0.47 0.47
0.03 0.03 0.03 0.02 0.02 0.02 0.01 0.01 0.01 0.01 0.01 0.02 0.03 0.04 0.06 0.09 0.11 0.13 0.17 0.27 0.36 0.45 0.52 0.60 0.71 0.82 0.88 0.81 0.86 1.02 0.88 0.63 0.56 0.66 0.72 0.61 0.55 0.58
0.03 0.03 0.03 0.03 0.03 0.02 0.01 0.01 0.01 0.01 0.01 0.02 0.03 0.03 0.05 0.08 0.11 0.12 0.16 0.24 0.35 0.44 0.51 0.58 0.72 0.81 0.84 0.77 0.81 0.97 1.03 0.93 0.70 0.60 0.56 0.51 0.50 0.53
0.05 0.05 0.04 0.03 0.04 0.03 0.02 0.02 0.01 0.01 0.01 0.02 0.03 0.03 0.04 0.07 0.10 0.12 0.16 0.23 0.31 0.40 0.48 0.57 0.66 0.79 0.93 0.96 0.98 0.98 1.02 1.05 1.03 0.87 0.67 0.43 0.32 0.33
0.08 0.07 0.06 0.05 0.05 0.04 0.03 0.02 0.02 0.02 0.01 0.02 0.03 0.03 0.05 0.08 0.10 0.13 0.16 0.21 0.27 0.33 0.39 0.50 0.63 0.77 0.93 0.96 0.95 0.94 0.87 0.81 0.80 0.83 0.92 0.73 0.44 0.29